Pagina principale
METAR-TAF:

METAR-TAF

Aeroporti :

Santa Maria di Leuca

Castrignano del Capo, Italia

latitudine: 39-49N, longitudine: 018-21E, altezza: 104 m

Osservazione

Il bollettino è stato emesso 46 minuti fa, alle 21:55 UTC
Vento 12 kt da nord/nord-est
Temperature 26°C
Umidità 39%
Pressione 1016 hPa

METAR: LIBY 192155Z AUTO 02012KT //// 26/11 Q1016

Ora: 00:41 (22:41 UTC)


TAF: mancante

Osservazioni e previsioni meteorologiche di più di 4000 aeroporti (messaggi METAR e TAF).

Le stazioni disponibili sono rappresentate dai dischi gialli e rossi sulla carta.

Puntare il mouse per vedere il nome della stazione.

Clicca sopra per visualizzare le osservazioni e previsioni meteorologiche.

Per cambiare la mappa : fare clic sui pulsanti verdi con una croce nera per ingrandire, il pulsante verde con un trattino per diminuire, o sulla freccia verde per le mappe adiacenti.


METAR-TAF: